Weather History for Rotterdam, Netherlands

Change the Weather History Date:

Tuesday, October 15, 2013

  Actual Average Record
Temperature  
Mean Temperature 50 °F -  
Max Temperature 53 °F 52 °F 69 °F (2001)
Min Temperature 44 °F 42 °F 35 °F (1997)
Degree Days  
Heating Degree Days 16    
Moisture  
Dew Point 49 °F    
Average Humidity 93    
Maximum Humidity 100    
Minimum Humidity 82    
Precipitation  
Precipitation 0.16 in - - ()
Sea Level Pressure  
Sea Level Pressure 29.72 in    
Wind  
Wind Speed 7 mph ()    
Max Wind Speed 13 mph    
Max Gust Speed -    
Visibility 6.1 miles    
Events Fog , Rain    
Averages and records for this station are not official NWS values.
T = Trace of Precipitation, MM = Missing Value Source: Averaged Metar Reports

Daily Weather History Graph

Daily Weather History Graph

Search for Another Location

Airport:

Trip Planner

Search our weather history database for the weather conditions in past years. The results will help you decide how hot, cold, wet, or windy it might be!

Date:

Astronomy

Oct. 15, 2013 Rise Set
Actual Time 8:06 AM CEST 6:48 PM CEST
Civil Twilight 7:32 AM CEST 7:22 PM CEST
Nautical Twilight 6:53 AM CEST 8:01 PM CEST
Astronomical Twilight 6:14 AM CEST 8:40 PM CEST
Moon 5:05 PM CEST (10/15) 3:46 AM CEST (10/15)
Length of Visible Light 11h 49m
Length of Day
10h 41m
Waxing Gibbous, 85% of the Moon is Illuminated
Oct 15
Waxing Gibbous
Oct 19
Full
Oct 27
Last Quarter
Nov 3
New
Nov 10
First Quarter

Hourly Weather History & Observations

Time (CEST) Temp. Dew Point Humidity Pressure Visibility Wind Dir Wind Speed Gust Speed Precip Events Conditions
12:25 AM 51.8 °F 50.0 °F 94% 29.74 in 5.0 mi South 8.1 mph - N/A   Light Drizzle
12:55 AM 50.0 °F 48.2 °F 94% 29.74 in 6.2 mi South 9.2 mph - N/A   Partly Cloudy
1:25 AM 50.0 °F 48.2 °F 94% 29.74 in 6.2 mi South 8.1 mph - N/A   Scattered Clouds
1:55 AM 50.0 °F 48.2 °F 94% 29.74 in 6.2 mi South 8.1 mph - N/A   Mostly Cloudy
2:00 AM 50 °F 49 °F 95% 29.76 in 6 mi South 8.9 mph - - Rain Rain
2:25 AM 50.0 °F 48.2 °F 94% 29.74 in 5.6 mi South 8.1 mph - N/A   Overcast
2:55 AM 50.0 °F 48.2 °F 94% 29.74 in 5.0 mi South 6.9 mph - N/A   Mostly Cloudy
3:25 AM 50.0 °F 48.2 °F 94% 29.74 in 5.0 mi South 8.1 mph - N/A   Partly Cloudy
3:55 AM 50.0 °F 48.2 °F 94% 29.71 in 4.3 mi South 9.2 mph - N/A   Partly Cloudy
4:25 AM 50.0 °F 48.2 °F 94% 29.71 in 4.3 mi South 9.2 mph - N/A   Mostly Cloudy
4:55 AM 50.0 °F 48.2 °F 94% 29.71 in 5.0 mi South 9.2 mph - N/A   Mostly Cloudy
5:00 AM 50 °F 49 °F 93% 29.72 in 5 mi South 8.9 mph - -   Mist
5:25 AM 50.0 °F 48.2 °F 94% 29.71 in 5.6 mi South 9.2 mph - N/A   Mostly Cloudy
5:55 AM 50.0 °F 48.2 °F 94% 29.71 in 6.2 mi South 8.1 mph - N/A   Mostly Cloudy
6:25 AM 50.0 °F 48.2 °F 94% 29.68 in 5.6 mi South 9.2 mph - N/A   Mostly Cloudy
6:55 AM 50.0 °F 48.2 °F 94% 29.68 in 6.2 mi SSW 12.7 mph - N/A Rain Light Rain
7:25 AM 50.0 °F 46.4 °F 87% 29.68 in 6.2 mi SSW 8.1 mph - N/A   Overcast
7:55 AM 50.0 °F 48.2 °F 94% 29.68 in 6.2 mi SSW 8.1 mph - N/A   Partly Cloudy
8:00 AM 50 °F 47 °F 88% 29.70 in 6 mi SSW 8.9 mph - - Rain Rain
8:25 AM 50.0 °F 48.2 °F 94% 29.68 in 6.2 mi SSW 9.2 mph - N/A Rain Light Rain
8:55 AM 50.0 °F 48.2 °F 94% 29.68 in 6.2 mi SSW 8.1 mph - N/A   Partly Cloudy
9:25 AM 50.0 °F 48.2 °F 94% 29.68 in 6.2 mi SSW 10.4 mph - N/A   Scattered Clouds
9:55 AM 51.8 °F 50.0 °F 94% 29.68 in 6.2 mi SSW 9.2 mph - N/A   Mostly Cloudy
10:25 AM 51.8 °F 50.0 °F 94% 29.68 in 6.2 mi SW 11.5 mph - N/A   Overcast
10:55 AM 51.8 °F 48.2 °F 88% 29.71 in 6.2 mi WSW 9.2 mph - N/A Rain Light Rain Showers
11:00 AM 51 °F 48 °F 84% 29.72 in 16 mi WSW 8.9 mph - - Rain Rain
11:25 AM 50.0 °F 48.2 °F 94% 29.71 in 4.3 mi West 4.6 mph - N/A Rain Rain Showers
11:55 AM 51.8 °F 48.2 °F 88% 29.71 in 6.2 mi SSW 6.9 mph - N/A   Mostly Cloudy
12:25 PM 53.6 °F 48.2 °F 82% 29.71 in 6.2 mi SSW 10.4 mph - N/A   Unknown
12:55 PM 50.0 °F 48.2 °F 94% 29.71 in 6.2 mi West 5.8 mph - N/A Rain Light Rain
1:25 PM 50.0 °F 48.2 °F 94% 29.71 in 6.2 mi West 5.8 mph - N/A Rain Light Rain
1:55 PM 51.8 °F 48.2 °F 88% 29.71 in 6.2 mi West 8.1 mph - N/A Rain Light Rain
2:00 PM 51 °F 48 °F 87% 29.73 in 16 mi WSW 8.9 mph - - Rain Light Rain
2:25 PM 51.8 °F 48.2 °F 88% 29.71 in 6.2 mi WSW 9.2 mph - N/A   Drizzle
2:55 PM 51.8 °F 48.2 °F 88% 29.71 in 6.2 mi West 6.9 mph - N/A Rain Light Rain
3:25 PM 51.8 °F 50.0 °F 94% 29.71 in 6.2 mi West 3.5 mph - N/A Rain Light Rain
3:55 PM 53.6 °F 48.2 °F 82% 29.71 in 6.2 mi WSW 10.4 mph - N/A   Partly Cloudy
4:25 PM 53.6 °F 48.2 °F 82% 29.68 in 6.2 mi WSW 12.7 mph - N/A   Drizzle
4:55 PM 51.8 °F 50.0 °F 94% 29.68 in 6.2 mi WSW 12.7 mph - N/A Rain Light Rain Showers
5:00 PM 52 °F 50 °F 91% 29.70 in 9 mi SW 11.2 mph - - Rain Light Rain Showers
5:25 PM 51.8 °F 50.0 °F 94% 29.68 in 6.2 mi SW 10.4 mph - N/A   Scattered Clouds
5:55 PM 51.8 °F 51.8 °F 100% 29.68 in 6.2 mi SW 8.1 mph - N/A Rain Light Rain
6:25 PM 53.6 °F 51.8 °F 94% 29.68 in 6.2 mi SW 4.6 mph - N/A   Mostly Cloudy
6:55 PM 53.6 °F 51.8 °F 94% 29.68 in 6.2 mi North 3.5 mph - N/A Rain Light Rain
7:25 PM 51.8 °F 50.0 °F 94% 29.71 in 6.2 mi North 5.8 mph - N/A   Scattered Clouds
7:55 PM 50.0 °F 50.0 °F 100% 29.74 in 6.2 mi NW 3.5 mph - N/A   Unknown
8:00 PM 51 °F 50 °F 95% 29.75 in 6 mi WNW 2.2 mph - - Rain Rain
8:25 PM 50.0 °F 50.0 °F 100% 29.74 in 5.0 mi Variable 2.3 mph - N/A   Overcast
8:55 PM 51.8 °F 50.0 °F 94% 29.74 in 6.2 mi WSW 2.3 mph - N/A   Overcast
9:25 PM 51.8 °F 50.0 °F 94% 29.74 in 6.2 mi Variable 2.3 mph - N/A Rain Light Rain
9:55 PM 50.0 °F 50.0 °F 100% 29.77 in 4.3 mi SW 2.3 mph - N/A   Partly Cloudy
10:25 PM 48.2 °F 48.2 °F 100% 29.77 in - Calm Calm - N/A Fog Fog
10:55 PM 46.4 °F 46.4 °F 100% 29.80 in 3.7 mi Variable 2.3 mph - N/A   Partly Cloudy
11:00 PM 46 °F 46 °F 100% 29.81 in 1 mi North 4.5 mph - - Fog Fog
11:25 PM 48.2 °F 48.2 °F 100% 29.80 in 4.3 mi North 3.5 mph - N/A   Unknown
11:55 PM 44.6 °F 44.6 °F 100% 29.83 in 4.3 mi North 2.3 mph - N/A   Unknown